Bradshaw AFB, HI

9:13 AM HST on November 20, 2019 (GMT -1000)
Bradshaw Army Air Field

Weather History for PHSF - September, 2019

Change the Weather History Date:

Monday, September 9, 2019

  Actual Average Record
Temperature  
Mean Temperature 62 °F -  
Max Temperature 71 °F 70 °F 77 °F (2001)
Min Temperature 53 °F 49 °F 44 °F (1997)
Degree Days  
Heating Degree Days 3    
Growing Degree Days 12 (Base 50)    
Moisture  
Dew Point 49 °F    
Average Humidity 67    
Maximum Humidity 91    
Minimum Humidity 41    
Precipitation  
Precipitation 0.00 in - - ()
Sea Level Pressure  
Sea Level Pressure 30.03 in    
Wind  
Wind Speed 10 mph (SSE)    
Max Wind Speed 17 mph    
Max Gust Speed 24 mph    
Visibility 10 miles    
Events      
Averages and records for this station are not official NWS values.
T = Trace of Precipitation, MM = Missing Value Source: NWS Daily Summary

Daily Weather History Graph

Daily Weather History Graph

Search for Another Location

Airport or City:

Astronomy

Sep. 09, 2019 Rise Set
Actual Time 6:08 AM HST 6:30 PM HST
Civil Twilight 5:46 AM HST 6:52 PM HST
Nautical Twilight 5:20 AM HST 7:18 PM HST
Astronomical Twilight 4:54 AM HST 7:44 PM HST
Moon 3:59 PM HST (9/9) 2:26 AM HST (9/9)
Length of Visible Light 13h 06m
Length of Day
12h 21m
Waxing Gibbous, 84% of the Moon is Illuminated
Sep 9
Waxing Gibbous
Sep 13
Full
Sep 21
Last Quarter
Sep 28
New
Oct 5
First Quarter

Hourly Weather History & Observations

Time (HST) Temp. Dew Point Humidity Pressure Visibility Wind Dir Wind Speed Gust Speed Precip Events Conditions
12:56 AM 54.1 °F 46.4 °F 75% 30.02 in 10.0 mi SE 4.6 mph - N/A   Clear
1:56 AM 56.8 °F 49.6 °F 77% 29.99 in 10.0 mi SE 10.4 mph 16.1 mph N/A   Clear
2:31 AM 53.6 °F 50.0 °F 88% 29.99 in 2.8 mi SE 10.4 mph 19.6 mph N/A   Haze
2:41 AM 53.6 °F 50.0 °F 88% 29.98 in 10.0 mi SSE 10.4 mph 17.3 mph N/A   Clear
2:56 AM 54.1 °F 49.3 °F 84% 29.99 in 10.0 mi SE 8.1 mph - N/A   Clear
3:56 AM 53.6 °F 50.9 °F 91% 30.02 in 10.0 mi SE 10.4 mph - N/A   Clear
4:56 AM 53.1 °F 46.2 °F 78% 30.03 in 10.0 mi SE 8.1 mph - N/A   Partly Cloudy
5:56 AM 53.8 °F 44.1 °F 70% 30.04 in 10.0 mi SE 11.5 mph 18.4 mph N/A   Clear
6:56 AM 55.4 °F 48.9 °F 79% 30.06 in 10.0 mi SE 9.2 mph 16.1 mph N/A   Clear
7:56 AM 57.7 °F 50.4 °F 76% 30.08 in 10.0 mi SSE 10.4 mph 19.6 mph N/A   Partly Cloudy
8:56 AM 66.0 °F 46.2 °F 49% 30.06 in 10.0 mi South 15.0 mph 19.6 mph N/A   Partly Cloudy
9:56 AM 68.4 °F 45.9 °F 44% 30.04 in 10.0 mi South 12.7 mph 21.9 mph N/A   Partly Cloudy
10:22 AM 69.8 °F 48.2 °F 46% 30.04 in 10.0 mi SSW 11.5 mph 24.2 mph N/A   Partly Cloudy
10:56 AM 70.2 °F 45.7 °F 41% 30.04 in 10.0 mi SSW 12.7 mph 23.0 mph N/A   Partly Cloudy
11:56 AM 71.6 °F 46.4 °F 41% 30.01 in 10.0 mi South 13.8 mph 21.9 mph N/A   Clear
12:54 PM 71.6 °F 48.2 °F 43% 30.02 in 10.0 mi SSW 13.8 mph 21.9 mph N/A   Clear
12:56 PM 71.2 °F 48.6 °F 45% 30.02 in 10.0 mi SSW 9.2 mph 21.9 mph N/A   Clear
1:56 PM 71.6 °F 49.1 °F 45% 29.98 in 10.0 mi SSE 16.1 mph 21.9 mph N/A   Clear
2:35 PM 71.6 °F 55.4 °F 57% 29.98 in 10.0 mi SSW 12.7 mph 24.2 mph N/A   Clear
2:56 PM 69.1 °F 55.0 °F 61% 29.97 in 10.0 mi SSE 12.7 mph 19.6 mph N/A   Clear
3:03 PM 69.8 °F 55.4 °F 60% 29.97 in 10.0 mi SSE 13.8 mph 20.7 mph N/A   Clear
3:56 PM 66.7 °F 50.5 °F 56% 30.00 in 10.0 mi SSE 17.3 mph 23.0 mph N/A   Clear
4:56 PM 65.1 °F 53.2 °F 65% 30.01 in 10.0 mi South 11.5 mph 17.3 mph N/A   Partly Cloudy
5:56 PM 59.0 °F 50.5 °F 73% 30.04 in 10.0 mi SSE 12.7 mph 18.4 mph N/A   Partly Cloudy
6:56 PM 57.6 °F 51.1 °F 79% 30.05 in 10.0 mi SE 10.4 mph 16.1 mph N/A   Clear
7:56 PM 56.1 °F 50.4 °F 81% 30.07 in 10.0 mi SE 6.9 mph - N/A   Clear
8:56 PM 54.7 °F 47.5 °F 77% 30.07 in 10.0 mi SE 3.5 mph - N/A   Clear
9:56 PM 54.1 °F 48.7 °F 82% 30.08 in 10.0 mi SE 3.5 mph - N/A   Clear
10:56 PM 54.1 °F 48.2 °F 80% 30.07 in 10.0 mi SE 4.6 mph - N/A   Clear
11:56 PM 53.2 °F 49.8 °F 88% 30.04 in 10.0 mi SE 5.8 mph - N/A   Clear